[[{"header":{"parameterUnit":"m.s-1","parameterCategory":1,"la1":30.2991,"la2":30.254,"lo1":-89.0895,"lo2":-89.0444,"dy":0.0017,"dx":0.0017,"nx":28,"ny":28,"refTime":"2025-04-05T21:00:00:Z","depth":0,"parameterNumber":2,"parameterNumberName":"U-component_of_WINDS"},"data":[0,0,0,0,0,0,0,0,0,0,0,0,0,0,0,0,0,0,0,0,0,0,0,0,0,0,0,0,0,0,0,0,0,0,0,0,0,0,0,0,0,0,0,0,0,0,0,0,0,0,0,0,0,0,0,0,0,0,4.0367,4.0367,0,4.0408,4.0409,4.0409,4.0381,4.038,4.0379,4.0378,4.0421,4.0423,4.0425,0,0,0,0,0,0,0,0,0,0,0,0,0,4.0265,4.0267,4.0367,4.0367,4.0368,4.0408,4.0409,4.0409,4.0381,4.038,4.0378,4.0377,4.042,4.0423,4.0426,0,0,0,0,0,0,0,0,0,0,0,0,0,4.0308,4.0268,4.0367,4.0359,4.0358,4.0408,4.0409,4.041,4.0382,4.038,4.0378,4.0376,4.0419,4.0423,4.0426,4.0486,0,0,4.0437,4.0438,0,0,0,0,0,0,0,0,4.0306,4.0312,4.0359,4.0359,4.0359,4.0388,4.0389,4.0435,4.0382,4.0373,4.0377,4.0375,4.0411,4.0415,4.0427,4.0488,4.049,4.0437,4.0439,4.0441,4.0442,0,0,0,0,0,0,0,4.0303,4.031,4.0383,4.036,4.036,4.0354,4.0358,4.0398,4.0402,4.0374,4.0372,4.0377,4.0411,4.0424,4.0428,4.0491,4.0437,4.044,4.0442,4.0444,4.0604,4.0606,0,0,0,0,0,0,4.03,4.0308,4.0382,4.0384,4.0327,4.0357,4.0362,4.038,4.0402,4.0403,4.0379,4.0375,4.0419,4.0424,4.043,4.0501,4.0441,4.0444,4.0446,4.0601,4.0604,4.0606,0,0,0,0,0,0,4.0298,4.0307,4.038,4.0346,4.0354,4.0361,4.0382,4.0382,4.0395,4.0406,4.0407,4.0391,4.0418,4.0425,4.0472,4.0503,4.0446,4.0449,4.0599,4.0602,4.0605,4.0645,0,0,0,0,0,0,4.0296,4.0307,4.0329,4.0346,4.0356,4.0422,4.0384,4.0384,4.0401,4.0398,4.0417,4.0419,4.0417,4.0467,4.0476,4.0506,4.0452,4.0596,4.06,4.0604,4.0641,4.065,4.0657,0,0,0,0,0,4.0292,4.0339,4.033,4.0339,4.0384,4.0424,4.0429,4.0426,4.0404,4.0427,4.0434,4.0418,4.0498,4.0472,4.0482,4.0514,4.0594,4.0599,4.0604,4.0638,4.0648,4.0657,0,0,0,0,0,0,4.0325,4.0341,4.0332,4.0385,4.0403,4.0419,4.0447,4.0436,4.0461,4.0457,4.0451,4.0456,4.0506,4.0515,4.0486,4.0574,4.0543,4.055,4.0566,4.0575,4.0583,4.0579,4.0455,0,0,0,0,0,4.0339,4.0368,4.0381,4.0427,4.0437,4.0441,4.0458,4.0453,4.0472,4.0479,4.049,4.0508,4.0538,4.0557,4.0585,4.0643,4.0647,4.067,4.0678,4.0684,4.069,4.0721,4.0732,4.0622,4.0622,4.0622,0,0,4.0367,4.0379,4.0398,4.0434,4.0447,4.0479,4.0447,4.0482,4.0505,4.0485,4.053,4.0539,4.056,4.0613,4.0637,4.0622,4.0721,4.069,4.0695,4.0697,4.0728,4.0738,4.0747,4.0625,4.0625,4.0624,0,0,4.0434,4.0446,4.0486,4.05,4.0521,4.0524,4.0533,4.0551,4.0556,4.0601,4.0587,4.0615,4.0666,4.0681,4.0696,4.0771,4.0758,4.078,4.082,4.0851,4.0859,4.0867,4.0893,4.0903,4.0786,4.0786,4.0786,0,4.0466,4.0512,4.0508,4.0544,4.056,4.0544,4.0584,4.0599,4.0628,4.064,4.0623,4.0686,4.0699,4.0756,4.0774,4.0787,4.0798,4.0777,4.0858,4.0866,4.0873,4.0898,4.0908,4.0789,4.0789,4.0788,4.0788,0,4.0551,4.0584,4.0614,4.0642,4.0662,4.07,4.0702,4.0723,4.0718,4.0723,4.077,4.0785,4.0816,4.0829,4.0824,4.0886,4.0876,4.0859,4.0828,4.0886,4.091,4.0919,4.0792,4.0792,4.0791,4.079,0,0,4.0639,4.0665,4.0676,4.0688,4.0711,4.0736,4.0775,4.0804,4.0822,4.0844,4.0875,4.092,4.0904,4.0921,4.0918,4.0946,4.1004,4.0925,4.0926,4.0939,4.1073,4.1085,4.1096,4.0996,4.0998,4.0999,4.1071,0,4.0707,4.0772,4.077,4.0831,4.0861,4.0847,4.088,4.0898,4.0904,4.0931,4.0938,4.0969,4.0946,4.0956,4.0983,4.0991,4.1031,4.0986,4.1026,4.1027,4.102,4.1108,4.1121,4.1187,4.108,4.1082,4.1083,0,4.0794,4.0818,4.0882,4.09,4.0913,4.0943,4.097,4.0997,4.1017,4.102,4.1039,4.1032,4.1071,4.104,4.1095,4.1065,4.1081,4.1088,4.109,4.1093,4.1058,4.1113,4.1209,4.1218,4.1098,4.1096,4.1095,0,4.0851,4.0899,4.0944,4.0955,4.0978,4.1,4.101,4.1029,4.1047,4.1072,4.1084,4.1113,4.1129,4.1152,4.1153,4.113,4.1208,4.1177,4.1212,4.1212,4.1227,4.1226,4.1326,4.124,4.124,4.1239,4.1239,0,4.0926,4.0966,4.097,4.0997,4.1041,4.1039,4.1084,4.1092,4.1109,4.1139,4.1129,4.1157,4.1157,4.1186,4.1188,4.1233,4.124,4.1243,4.1243,4.1244,4.1243,4.1253,4.1248,4.1242,4.1242,4.1241,4.1241,0,4.0996,4.1,4.1048,4.1066,4.1072,4.1104,4.1119,4.1146,4.1151,4.1189,4.1198,4.1206,4.124,4.1244,4.1284,4.1285,4.1339,4.1334,4.1331,4.133,4.1364,4.1361,4.1474,4.1489,4.1393,4.1394,4.1395,0,4.1044,4.1074,4.1095,4.1114,4.1126,4.1156,4.1175,4.1175,4.1195,4.1221,4.1245,4.1277,4.1303,4.1358,4.1368,4.1398,4.1394,4.1432,4.1398,4.1398,4.1394,4.1392,4.1395,4.1438,4.1439,4.1439,4.144,0,4.1127,4.1128,4.1155,4.1183,4.1206,4.1228,4.1249,4.1265,4.1268,4.1291,4.1325,4.1345,4.1386,4.1418,4.1449,4.146,4.1451,4.1451,4.146,4.146,4.1457,4.1459,4.1348,4.1448,4.1447,4.1446,4.1446,4.1446,4.1187,4.1213,4.1232,4.1263,4.1279,4.1299,4.1325,4.1334,4.1362,4.1394,4.1393,4.1431,4.1452,4.1491,4.1505,4.1535,4.1523,4.1537,4.154,4.1543,4.1546,4.1454,4.1541,4.1541,4.1541,4.154,4.154,0,4.1269,4.1281,4.1309,4.1339,4.1363,4.1353,4.1376,4.1397,4.143,4.145,4.1476,4.1516,4.1548,4.1561,4.1593,4.1614,4.1611,4.1622,4.162,4.1623,4.1556,4.1544,4.1625,4.1625,4.1625,4.1625,4.1625,4.1625,4.1315,4.1359,4.1362,4.1414,4.1426,4.1462,4.1476,4.1495,4.1511,4.1555,4.1582,4.159,4.1608,4.1641,4.167,4.1674,4.1685,4.1699,4.17,4.1637,4.1628,4.162,4.1609,4.1702,4.1702,4.1765,4.1766,4.1766]},{"header":{"parameterUnit":"m.s-1","parameterCategory":1,"la1":30.2991,"la2":30.254,"lo1":-89.0895,"lo2":-89.0444,"dy":0.0017,"dx":0.0017,"nx":28,"ny":28,"refTime":"2025-04-05T21:00:00:Z","depth":0,"parameterNumber":3,"parameterNumberName":"V-component_of_WINDS"},"data":[0,0,0,0,0,0,0,0,0,0,0,0,0,0,0,0,0,0,0,0,0,0,0,0,0,0,0,0,0,0,0,0,0,0,0,0,0,0,0,0,0,0,0,0,0,0,0,0,0,0,0,0,0,0,0,0,0,0,-3.3767,-3.3767,0,-3.3772,-3.3772,-3.3772,-3.3697,-3.3694,-3.3692,-3.369,-3.3697,-3.3699,-3.3701,0,0,0,0,0,0,0,0,0,0,0,0,0,-3.3692,-3.3694,-3.3767,-3.3767,-3.3767,-3.3772,-3.3772,-3.3772,-3.3697,-3.3694,-3.3692,-3.369,-3.3696,-3.3699,-3.3701,0,0,0,0,0,0,0,0,0,0,0,0,0,-3.3714,-3.3694,-3.3767,-3.373,-3.3727,-3.3772,-3.3772,-3.3772,-3.3697,-3.3694,-3.3691,-3.3688,-3.3695,-3.3698,-3.3702,-3.3783,0,0,-3.3711,-3.3712,0,0,0,0,0,0,0,0,-3.3713,-3.3717,-3.3735,-3.3732,-3.3729,-3.373,-3.3748,-3.3776,-3.3698,-3.3709,-3.369,-3.3687,-3.3711,-3.3712,-3.372,-3.3783,-3.3783,-3.3711,-3.3713,-3.3715,-3.3716,0,0,0,0,0,0,0,-3.3711,-3.3716,-3.3769,-3.3736,-3.3732,-3.3713,-3.3713,-3.3753,-3.3727,-3.3707,-3.3702,-3.3704,-3.3708,-3.3717,-3.372,-3.3783,-3.3711,-3.3714,-3.3716,-3.3717,-3.3914,-3.3918,0,0,0,0,0,0,-3.3715,-3.3715,-3.3769,-3.3769,-3.3713,-3.3717,-3.3717,-3.3733,-3.3726,-3.3722,-3.3706,-3.37,-3.3713,-3.3716,-3.372,-3.3815,-3.3715,-3.3718,-3.3719,-3.3911,-3.3915,-3.3919,0,0,0,0,0,0,-3.3713,-3.372,-3.3768,-3.3741,-3.3745,-3.3722,-3.3741,-3.3735,-3.3744,-3.3725,-3.372,-3.372,-3.3711,-3.3715,-3.3768,-3.3814,-3.3719,-3.3722,-3.3907,-3.3912,-3.3917,-3.4007,0,0,0,0,0,0,-3.3711,-3.372,-3.375,-3.3742,-3.3747,-3.3817,-3.3744,-3.3737,-3.3749,-3.3741,-3.3737,-3.3733,-3.3709,-3.3764,-3.3771,-3.3817,-3.3724,-3.3903,-3.3909,-3.3915,-3.3999,-3.4014,-3.4027,0,0,0,0,0,-3.3709,-3.3775,-3.3752,-3.3759,-3.3785,-3.3819,-3.3822,-3.3793,-3.3753,-3.3784,-3.3772,-3.3734,-3.3808,-3.377,-3.3777,-3.3825,-3.39,-3.3908,-3.3915,-3.3993,-3.4011,-3.4026,0,0,0,0,0,0,-3.379,-3.3774,-3.3748,-3.3813,-3.3818,-3.3806,-3.3844,-3.3812,-3.3829,-3.3821,-3.3783,-3.3783,-3.3842,-3.3838,-3.3796,-3.3904,-3.3847,-3.3856,-3.3904,-3.3921,-3.3934,-3.3934,-3.3727,0,0,0,0,0,-3.3816,-3.3845,-3.3829,-3.3888,-3.3892,-3.3868,-3.3882,-3.3859,-3.3862,-3.3864,-3.3856,-3.3862,-3.3886,-3.3903,-3.3924,-3.3998,-3.3997,-3.4035,-3.4048,-3.406,-3.4069,-3.4108,-3.4126,-3.3944,-3.3943,-3.3943,0,0,-3.3869,-3.3863,-3.3884,-3.3904,-3.3905,-3.3937,-3.387,-3.3906,-3.393,-3.387,-3.3919,-3.3914,-3.3917,-3.3981,-3.4009,-3.398,-3.4119,-3.4069,-3.4078,-3.4081,-3.4118,-3.4135,-3.4151,-3.3949,-3.3948,-3.3947,0,0,-3.3982,-3.398,-3.403,-3.4032,-3.4035,-3.4018,-3.4031,-3.4024,-3.4018,-3.4067,-3.4023,-3.405,-3.4093,-3.4097,-3.4105,-3.4221,-3.4187,-3.4229,-3.43,-3.434,-3.4354,-3.4367,-3.4409,-3.4425,-3.4238,-3.4238,-3.4238,0,-3.4047,-3.4093,-3.4059,-3.4099,-3.4109,-3.4056,-3.4107,-3.4111,-3.4121,-3.413,-3.4097,-3.415,-3.4149,-3.4214,-3.4242,-3.425,-3.4263,-3.423,-3.4355,-3.4367,-3.4378,-3.4418,-3.4434,-3.4243,-3.4243,-3.4242,-3.4242,0,-3.4174,-3.4206,-3.4246,-3.4257,-3.4272,-3.4317,-3.4291,-3.431,-3.4286,-3.4273,-3.4324,-3.4321,-3.4341,-3.4354,-3.4331,-3.4416,-3.4398,-3.4361,-3.4303,-3.4401,-3.4438,-3.4453,-3.4251,-3.4249,-3.4247,-3.4246,0,0,-3.4338,-3.433,-3.4346,-3.435,-3.4349,-3.4374,-3.4417,-3.4436,-3.4454,-3.4463,-3.4498,-3.4536,-3.4502,-3.4511,-3.4487,-3.4522,-3.4615,-3.448,-3.448,-3.4506,-3.4711,-3.474,-3.4758,-3.4592,-3.4595,-3.4597,-3.4711,0,-3.4449,-3.4521,-3.4492,-3.4567,-3.4597,-3.4548,-3.4585,-3.4589,-3.4579,-3.4603,-3.4591,-3.4619,-3.4571,-3.4576,-3.4608,-3.4597,-3.4656,-3.4588,-3.4626,-3.4627,-3.4627,-3.4777,-3.4807,-3.4915,-3.4725,-3.4727,-3.4729,0,-3.4587,-3.4602,-3.468,-3.4675,-3.4686,-3.472,-3.4737,-3.476,-3.4764,-3.4754,-3.4765,-3.4734,-3.4776,-3.4718,-3.4777,-3.4731,-3.4745,-3.4742,-3.4746,-3.4749,-3.4685,-3.4785,-3.4948,-3.4965,-3.4751,-3.4749,-3.4748,0,-3.4701,-3.474,-3.4792,-3.4797,-3.4792,-3.4817,-3.4816,-3.4817,-3.4831,-3.4845,-3.4854,-3.4873,-3.4884,-3.49,-3.4876,-3.4836,-3.4938,-3.4878,-3.4932,-3.4933,-3.4956,-3.4956,-3.5125,-3.4964,-3.4963,-3.4963,-3.4963,0,-3.4828,-3.4878,-3.4843,-3.4875,-3.493,-3.4896,-3.4952,-3.4945,-3.4946,-3.4977,-3.4935,-3.4965,-3.493,-3.4957,-3.4938,-3.499,-3.4995,-3.4988,-3.4983,-3.4993,-3.4994,-3.5002,-3.4994,-3.4967,-3.4966,-3.4966,-3.4965,0,-3.4964,-3.4942,-3.4996,-3.4987,-3.4986,-3.5027,-3.5019,-3.5049,-3.5035,-3.5074,-3.5082,-3.5061,-3.509,-3.5067,-3.5096,-3.5083,-3.5152,-3.5135,-3.5151,-3.5147,-3.5203,-3.5198,-3.5384,-3.5408,-3.523,-3.5232,-3.5233,0,-3.5047,-3.5084,-3.5079,-3.5097,-3.5099,-3.5127,-3.5141,-3.511,-3.5127,-3.5134,-3.5164,-3.5189,-3.5208,-3.5257,-3.5245,-3.5267,-3.5251,-3.5315,-3.5254,-3.5264,-3.5254,-3.5253,-3.5257,-3.5328,-3.533,-3.5332,-3.5333,0,-3.5197,-3.5185,-3.5207,-3.5226,-3.5244,-3.5257,-3.5267,-3.5284,-3.5252,-3.5273,-3.5302,-3.5317,-3.5346,-3.5373,-3.5391,-3.539,-3.5358,-3.5352,-3.5366,-3.5377,-3.5385,-3.5383,-3.5186,-3.5348,-3.5347,-3.5346,-3.5345,-3.5344,-3.531,-3.5341,-3.5343,-3.5369,-3.5373,-3.5384,-3.5412,-3.5402,-3.5426,-3.5447,-3.5427,-3.5463,-3.5467,-3.5487,-3.5491,-3.5519,-3.5493,-3.5513,-3.5518,-3.5524,-3.5532,-3.538,-3.5522,-3.5521,-3.5521,-3.5521,-3.552,0,-3.5459,-3.5458,-3.5482,-3.5497,-3.5518,-3.5485,-3.5494,-3.5514,-3.5546,-3.5552,-3.5572,-3.5606,-3.5632,-3.5622,-3.5645,-3.5669,-3.5655,-3.5676,-3.5675,-3.5676,-3.5554,-3.554,-3.5688,-3.5688,-3.5688,-3.5688,-3.5688,-3.5688,-3.5539,-3.559,-3.5578,-3.5632,-3.563,-3.5665,-3.5673,-3.5683,-3.5688,-3.5728,-3.5749,-3.5742,-3.5743,-3.5765,-3.5788,-3.5784,-3.5795,-3.5823,-3.5814,-3.57,-3.5684,-3.5668,-3.5655,-3.5825,-3.5825,-3.5934,-3.5935,-3.5935]}]]